Retour au catalogue

COSMOS 2392 DEB

ActifLEO
NORAD 43372·DEBRIS·🇷🇺 Russia

Lancé Jul 25, 2002 depuis Baikonur Cosmodrome

Loading…

Prochains Passages (prochaines 24 heures)

TLE

FraisSource: Space-Track

Époque: Sep 13, 2026, 11:37 UTC

1 43372U 02037BW  26256.48424313 -.00003838  00000-0 -28403-1 0  9993
2 43372  63.4363  50.5174 0271959 343.6545  15.5780 12.30060855425671

Suivez COSMOS 2392 DEB en temps réel avec AllMySat

Download on the App Store